Retour au catalogue

STARLINK-36367

ActifCommunicationsVLEO
NORAD 67629·PAYLOAD·🇺🇸 United States

Lancé Jan 30, 2026 depuis Cape Canaveral Space Force Station

Loading…

Prochains Passages (prochaines 24 heures)

TLE

FraisSource: CelesTrak SupGP

Époque: Sep 14, 2026, 22:43 UTC

1 67629C 26020N   26257.94701389 -.00069743  00000+0 -25264-2 0  2571
2 67629  43.0026 150.6983 0001361 273.2509 352.8971 15.27609801    13

Suivez STARLINK-36367 en temps réel avec AllMySat

Download on the App Store